Location: Melbourne
(37.8170°S, 144.9670°E)
Time: 05:22:36
(UTC+11:00)

ADEOS Rocket - Visible Passes

Search period start: 30 January 2015 00:00
Search period end: 09 February 2015 00:00
Orbit: 859 x 1307 km, 98.7° (Epoch: 28 January)

Date Brightness Start Highest point End Pass type
(mag) Time Alt. Az. Time Alt. Az. Time Alt. Az.
30 Jan 3.8 22:35:59 10° S 22:41:32 46° WSW 22:46:46 10° NW visible
31 Jan 2.7 21:46:56 10° SSE 21:52:42 68° E 21:58:10 10° N visible
31 Jan 5.5 23:34:17 10° SSW 23:37:39 15° WSW 23:40:39 10° W visible
01 Feb 3.8 20:58:54 10° SE 21:03:24 24° E 21:07:53 10° NNE visible
01 Feb 4.1 22:43:53 10° S 22:49:12 39° WSW 22:54:14 10° NW visible
02 Feb 2.7 21:54:40 10° SSE 22:00:25 80° ENE 22:05:56 10° N visible
02 Feb 5.6 23:42:42 10° SSW 23:45:15 13° WSW 23:47:28 10° W visible
03 Feb 3.6 21:06:24 10° SE 21:11:13 29° E 21:16:00 10° NNE visible
03 Feb 4.4 22:51:49 10° S 22:56:52 32° WSW 23:01:40 10° NW visible
04 Feb 2.8 22:02:25 10° SSE 22:08:08 86° WSW 22:13:39 10° NNW visible
04 Feb 5.8 23:51:43 10° SW 23:52:52 10° WSW 23:53:38 10° WSW visible
05 Feb 3.4 21:13:57 10° SSE 21:19:01 35° E 21:24:02 10° NNE visible
05 Feb 4.7 22:59:46 10° S 23:04:31 27° WSW 23:09:02 10° WNW visible
06 Feb 3.0 22:10:12 10° S 22:15:49 73° WSW 22:21:19 10° NNW visible
07 Feb 3.1 21:21:32 10° SSE 21:26:47 41° E 21:32:01 10° NNE visible
07 Feb 4.9 23:07:46 10° SSW 23:12:09 23° WSW 23:16:20 10° WNW visible
08 Feb 3.2 22:17:59 10° S 22:23:31 61° WSW 22:28:57 10° NNW visible
